• In United Kingdom
  • List of Countries
  • For 7 days
  • Water Temperature
  • Satellite Maps
  • Weather Map
  • Weather Widgets
  • user-avatar
    Login

    Hourly Weather Luanda

    Today, 17 January, Wednesday

    Time Temperature Precipitation Wind Pressure Humidity
    00:00 +27°C° 0 mm 2 mps 753 mmHg 86%
    01:00 +27°C° 0 mm 2 mps 753 mmHg 87%
    02:00 +27°C° 0 mm 2 mps 753 mmHg 88%
    03:00 +27°C° 0 mm 2 mps 753 mmHg 88%
    04:00 +27°C° 0 mm 2 mps 752 mmHg 88%
    05:00 +27°C° 0 mm 2 mps 753 mmHg 88%
    06:00 +27°C° 0 mm 2 mps 753 mmHg 88%
    07:00 +27°C° 0 mm 2 mps 753 mmHg 88%
    08:00 +29°C° 0 mm 2 mps 753 mmHg 80%
    09:00 +30°C° 0 mm 1 mps 753 mmHg 73%
    10:00 +32°C° 0 mm 1 mps 754 mmHg 66%
    11:00 +34°C° 0 mm 2 mps 753 mmHg 61%
    12:00 +35°C° 0 mm 3 mps 752 mmHg 56%
    13:00 +36°C° 0 mm 3 mps 752 mmHg 52%
    14:00 +35°C° 0 mm 4 mps 751 mmHg 55%
    15:00 +34°C° 0 mm 4 mps 751 mmHg 59%
    16:00 +33°C° 0 mm 5 mps 750 mmHg 62%
    17:00 +32°C° 0 mm 5 mps 751 mmHg 67%
    18:00 +30°C° 0 mm 4 mps 751 mmHg 73%
    19:00 +28°C° 0 mm 4 mps 751 mmHg 78%
    20:00 +28°C° 0 mm 4 mps 752 mmHg 80%
    21:00 +28°C° 0 mm 3 mps 753 mmHg 81%
    22:00 +28°C° 0 mm 3 mps 753 mmHg 83%
    23:00 +27°C° 0 mm 3 mps 753 mmHg 84%

    Tomorrow, 18 January, Thursday

    Time Temperature Precipitation Wind Pressure Humidity
    00:00 +27°C° 0 mm 3 mps 753 mmHg 85%
    01:00 +27°C° 0 mm 3 mps 754 mmHg 85%
    02:00 +27°C° 0 mm 3 mps 753 mmHg 86%
    03:00 +27°C° 0 mm 3 mps 753 mmHg 86%
    04:00 +26°C° 0 mm 3 mps 753 mmHg 87%
    05:00 +27°C° 0 mm 3 mps 753 mmHg 86%
    06:00 +27°C° 0 mm 3 mps 753 mmHg 84%
    07:00 +27°C° 0 mm 3 mps 754 mmHg 83%
    08:00 +28°C° 0 mm 2 mps 754 mmHg 76%
    09:00 +29°C° 0 mm 2 mps 754 mmHg 69%
    10:00 +31°C° 0 mm 2 mps 754 mmHg 62%
    11:00 +31°C° 0 mm 2 mps 754 mmHg 59%
    12:00 +33°C° 0 mm 3 mps 753 mmHg 55%
    13:00 +34°C° 0 mm 3 mps 753 mmHg 51%
    14:00 +34°C° 0 mm 4 mps 752 mmHg 53%
    15:00 +33°C° 0 mm 4 mps 752 mmHg 55%
    16:00 +33°C° 0 mm 5 mps 751 mmHg 58%
    17:00 +30°C° 0 mm 4 mps 751 mmHg 64%
    18:00 +29°C° 0 mm 4 mps 752 mmHg 69%
    19:00 +28°C° 0 mm 3 mps 752 mmHg 75%
    20:00 +28°C° 0 mm 3 mps 753 mmHg 76%
    21:00 +27°C° 0 mm 3 mps 753 mmHg 77%
    22:00 +27°C° 0 mm 3 mps 754 mmHg 78%
    23:00 +27°C° 0 mm 3 mps 754 mmHg 78%

    Day after tomorrow, 19 January, Friday

    Time Temperature Precipitation Wind Pressure Humidity
    00:00 +27°C° 0 mm 3 mps 753 mmHg 78%
    01:00 +27°C° 0 mm 2 mps 753 mmHg 78%
    02:00 +27°C° 0 mm 2 mps 753 mmHg 79%
    03:00 +26°C° 0 mm 2 mps 753 mmHg 80%
    04:00 +26°C° 0 mm 2 mps 752 mmHg 80%
    05:00 +26°C° 0.1 mm 2 mps 753 mmHg 80%
    06:00 +26°C° 0.1 mm 2 mps 753 mmHg 80%
    07:00 +26°C° 0.1 mm 2 mps 753 mmHg 79%
    08:00 +27°C° 0 mm 2 mps 754 mmHg 76%
    09:00 +28°C° 0 mm 2 mps 754 mmHg 73%
    10:00 +28°C° 0 mm 2 mps 754 mmHg 70%
    11:00 +28°C° 0 mm 2 mps 754 mmHg 68%
    12:00 +29°C° 0 mm 1 mps 753 mmHg 67%
    13:00 +29°C° 0 mm 1 mps 753 mmHg 65%
    14:00 +30°C° 0 mm 1 mps 752 mmHg 63%
    15:00 +30°C° 0 mm 2 mps 751 mmHg 61%
    16:00 +30°C° 0 mm 2 mps 751 mmHg 59%
    17:00 +29°C° 0 mm 2 mps 751 mmHg 64%
    18:00 +28°C° 0 mm 1 mps 752 mmHg 69%
    19:00 +27°C° 0 mm 1 mps 752 mmHg 74%
    20:00 +27°C° 0 mm 1 mps 753 mmHg 77%
    21:00 +26°C° 0 mm 1 mps 753 mmHg 80%
    22:00 +26°C° 0 mm 1 mps 754 mmHg 84%
    23:00 +25°C° 0 mm 1 mps 753 mmHg 86%

    20 January, Saturday

    Time Temperature Precipitation Wind Pressure Humidity
    00:00 +23°C° 0 mm 0 mps 753 mmHg 87%
    01:00 +23°C° 0 mm 0 mps 753 mmHg 89%
    02:00 +23°C° 0 mm 0 mps 752 mmHg 89%
    03:00 +23°C° 0 mm 0 mps 752 mmHg 90%
    04:00 +25°C° 0 mm 1 mps 752 mmHg 90%
    05:00 +25°C° 0 mm 1 mps 752 mmHg 89%
    06:00 +25°C° 0 mm 1 mps 753 mmHg 87%
    07:00 +25°C° 0 mm 2 mps 753 mmHg 85%
    08:00 +28°C° 0 mm 2 mps 753 mmHg 75%
    09:00 +30°C° 0 mm 2 mps 754 mmHg 65%
    10:00 +32°C° 0 mm 2 mps 754 mmHg 55%
    11:00 +34°C° 0 mm 3 mps 753 mmHg 51%
    12:00 +35°C° 0 mm 3 mps 752 mmHg 47%
    13:00 +36°C° 0 mm 4 mps 752 mmHg 44%
    14:00 +35°C° 0 mm 4 mps 751 mmHg 46%
    15:00 +34°C° 0 mm 4 mps 751 mmHg 48%
    16:00 +33°C° 0 mm 5 mps 750 mmHg 51%
    17:00 +32°C° 0 mm 4 mps 751 mmHg 58%
    18:00 +29°C° 0 mm 3 mps 751 mmHg 66%
    19:00 +28°C° 0 mm 3 mps 752 mmHg 73%
    20:00 +27°C° 0 mm 3 mps 752 mmHg 76%
    21:00 +27°C° 0 mm 2 mps 753 mmHg 79%
    22:00 +27°C° 0 mm 2 mps 753 mmHg 81%
    23:00 +27°C° 0 mm 1 mps 753 mmHg 83%

    21 January, Sunday

    Time Temperature Precipitation Wind Pressure Humidity
    00:00 +26°C° 0 mm 1 mps 753 mmHg 84%
    01:00 +26°C° 0 mm 1 mps 752 mmHg 85%
    02:00 +26°C° 0 mm 1 mps 752 mmHg 86%
    03:00 +26°C° 0 mm 1 mps 752 mmHg 87%
    04:00 +26°C° 0 mm 1 mps 752 mmHg 88%
    05:00 +26°C° 0 mm 1 mps 753 mmHg 88%
    06:00 +26°C° 0 mm 1 mps 753 mmHg 87%
    07:00 +26°C° 0 mm 1 mps 754 mmHg 86%
    08:00 +28°C° 0 mm 1 mps 754 mmHg 75%
    09:00 +30°C° 0 mm 1 mps 754 mmHg 65%
    10:00 +31°C° 0 mm 0 mps 754 mmHg 54%
    11:00 +34°C° 0 mm 2 mps 753 mmHg 51%
    12:00 +35°C° 0 mm 3 mps 753 mmHg 48%
    13:00 +36°C° 0 mm 4 mps 752 mmHg 45%
    14:00 +35°C° 0 mm 4 mps 752 mmHg 48%
    15:00 +34°C° 0 mm 4 mps 751 mmHg 50%
    16:00 +33°C° 0 mm 5 mps 751 mmHg 53%
    17:00 +32°C° 0 mm 4 mps 751 mmHg 60%
    18:00 +29°C° 0 mm 3 mps 751 mmHg 67%
    19:00 +28°C° 0 mm 3 mps 752 mmHg 74%
    20:00 +27°C° 0 mm 3 mps 752 mmHg 77%
    21:00 +27°C° 0 mm 2 mps 753 mmHg 79%
    22:00 +26°C° 0 mm 2 mps 754 mmHg 82%
    23:00 +26°C° 0 mm 2 mps 753 mmHg 83%

    22 January, Monday

    Time Temperature Precipitation Wind Pressure Humidity
    00:00 +26°C° 0 mm 1 mps 753 mmHg 85%
    01:00 +25°C° 0 mm 1 mps 753 mmHg 86%
    02:00 +25°C° 0 mm 1 mps 753 mmHg 87%
    03:00 +25°C° 0 mm 1 mps 753 mmHg 89%
    04:00 +25°C° 0 mm 1 mps 753 mmHg 90%
    05:00 +25°C° 0 mm 1 mps 753 mmHg 89%
    06:00 +25°C° 0 mm 1 mps 753 mmHg 87%
    07:00 +25°C° 0 mm 1 mps 754 mmHg 86%
    08:00 +28°C° 0 mm 1 mps 754 mmHg 76%
    09:00 +30°C° 0 mm 1 mps 754 mmHg 65%
    10:00 +32°C° 0 mm 1 mps 754 mmHg 55%
    11:00 +34°C° 0 mm 2 mps 753 mmHg 51%
    12:00 +35°C° 0 mm 2 mps 753 mmHg 46%
    13:00 +36°C° 0 mm 3 mps 752 mmHg 42%
    14:00 +35°C° 0 mm 4 mps 751 mmHg 45%
    15:00 +35°C° 0 mm 4 mps 751 mmHg 47%
    16:00 +34°C° 0 mm 5 mps 750 mmHg 49%
    17:00 +32°C° 0 mm 4 mps 751 mmHg 56%
    18:00 +30°C° 0 mm 4 mps 751 mmHg 63%
    19:00 +28°C° 0 mm 4 mps 752 mmHg 70%
    20:00 +27°C° 0 mm 3 mps 752 mmHg 74%
    21:00 +27°C° 0 mm 3 mps 753 mmHg 78%
    22:00 +26°C° 0 mm 3 mps 753 mmHg 81%
    23:00 +26°C° 0 mm 2 mps 753 mmHg 84%
    Show more